RH
31 31 21 10 11 12 20 21 21 14 15 58 66 69 54 60 66 25 9 9 22 45 41 15 20 17 15 8 4 3 4 3 3 4 3 4 4 4 3 2 2 2 1 1 1
30 16 22 23 20 16 12 15 17 17 14 11 43 58 70 62 66 70 33 10 10 33 51 42 17 19 20 18 11 7 6 5 5 5 5 5 5 6 8 5 4 3 3 2 2
20 20 16 16 19 23 17 14 14 13 15 13 12 42 63 76 75 63 79 40 10 15 45 54 41 21 20 23 19 14 16 12 9 10 10 8 9 10 14 20 14 7 4 4 4
20 19 25 18 15 15 18 19 16 17 16 13 14 14 51 65 82 80 76 85 21 11 21 53 53 38 20 19 18 19 23 21 16 12 14 8 8 12 17 24 22 13 13 22 23
22 18 18 22 33 23 17 16 21 18 19 16 14 13 21 54 66 82 82 84 82 20 12 30 53 57 43 26 18 18 24 28 25 11 9 11 19 16 30 27 25 19 25 30 30
32 25 22 28 39 50 28 21 17 18 18 18 16 15 14 22 41 59 78 78 88 83 49 20 34 52 60 48 32 24 25 25 27 19 15 23 26 27 38 36 31 28 32 38 39
38 38 36 35 42 60 53 39 30 18 16 17 17 15 16 16 24 34 53 78 89 91 91 73 41 42 41 57 47 32 26 23 26 28 24 28 26 30 33 36 36 40 44 40 38
48 41 42 41 44 62 70 61 46 31 21 15 15 14 19 15 14 19 28 73 90 98 98 100 73 44 39 43 57 45 36 29 27 28 29 30 24 28 30 33 40 46 45 42 38
55 51 52 57 51 59 69 68 52 40 31 24 20 17 18 13 20 23 19 40 68 81 96 99 93 86 67 55 47 48 43 47 52 41 28 29 26 25 28 30 38 46 48 41 36
72 60 63 62 55 51 60 69 63 44 41 32 21 22 24 19 20 20 36 38 36 55 77 91 96 91 79 67 52 51 50 46 52 66 74 72 32 26 25 27 35 47 49 39 37
68 93 66 74 80 84 72 69 63 48 47 64 36 33 32 27 25 22 30 50 46 42 54 68 77 94 98 88 65 57 70 46 35 40 36 26 23 21 23 23 38 49 45 37 32
29 85 100 91 100 100 86 50 80 85 96 79 47 52 43 32 29 29 31 29 32 43 77 73 60 93 90 93 92 92 88 50 40 47 46 28 22 15 52 28 38 45 37 32 31
28 66 97 100 97 90 80 92 98 100 96 80 74 63 57 42 37 34 30 33 36 49 74 86 91 92 82 90 90 96 80 33 54 62 47 36 52 54 35 22 49 36 31 30 35
30 57 77 94 92 91 79 100 96 100 96 69 67 71 56 56 41 39 30 37 50 65 81 83 92 93 87 86 86 87 78 91 89 80 69 64 57 47 33 60 39 33 31 32 33
24 63 90 96 64 79 100 98 100 99 91 80 63 54 56 52 48 49 43 41 46 59 57 56 87 94 88 96 94 94 94 90 86 85 80 55 46 55 64 66 47 34 30 32 23
19 45 87 87 52 100 99 94 99 100 76 68 54 51 56 55 57 56 44 51 50 67 56 56 77 79 77 82 90 87 90 93 86 85 77 47 53 59 54 63 48 31 36 36 20
21 100 99 76 88 99 95 99 100 91 65 59 54 57 64 66 68 66 52 45 40 44 47 53 59 88 87 84 82 86 65 54 62 78 78 78 76 73 57 43 37 39 40 31 21
20 100 94 96 73 97 92 99 89 50 54 48 59 62 58 68 69 81 73 62 58 57 68 78 85 88 82 93 96 96 94 88 84 83 82 85 79 70 46 38 37 58 62 24 21
27 100 100 94 99 88 100 94 58 46 63 64 70 67 62 55 62 69 66 57 52 68 86 94 86 93 93 98 97 88 86 100 88 83 84 69 51 43 47 67 69 37 25 23 21
34 100 98 96 94 98 99 48 64 60 70 73 71 69 70 79 81 75 64 57 61 71 93 97 98 99 100 97 94 87 96 89 76 81 88 70 49 56 78 83 45 33 30 30 30
96 100 90 97 99 99 46 20 70 65 62 78 78 76 72 72 77 62 57 71 73 82 97 97 96 95 100 94 97 94 90 75 73 63 57 72 78 95 89 68 36 33 35 34 33
100 99 97 97 98 96 46 45 65 62 72 71 76 82 79 75 69 68 67 76 77 84 72 93 96 95 100 100 98 97 98 86 71 69 73 75 84 94 74 54 41 37 37 38 43
100 99 62 92 96 89 70 52 46 74 73 64 85 84 78 72 70 71 67 60 59 72 74 92 73 88 98 93 87 89 96 96 98 97 87 91 81 86 72 59 63 58 45 43 42
100 100 100 100 96 88 21 30 37 71 80 64 90 88 79 81 76 84 77 70 69 79 85 88 81 94 99 100 98 96 98 95 93 86 91 88 64 65 75 68 60 60 62 62 66
100 99 90 91 92 64 51 75 68 78 73 69 89 84 88 82 86 80 85 79 78 76 84 83 77 88 98 97 97 97 98 99 96 98 84 71 76 93 93 82 72 66 66 62 60
100 98 87 90 100 70 34 39 70 91 81 64 70 80 88 89 85 94 96 89 94 88 95 92 84 87 92 97 97 96 91 96 90 80 77 86 92 96 92 78 71 65 68 63 57
100 85 96 74 96 95 58 67 64 77 88 96 94 84 98 99 99 100 90 88 90 87 94 94 100 96 94 98 96 78 88 94 94 91 93 88 95 94 86 86 80 74 61 56 53
Wind_Speed
42 42 39 40 42 42 44 43 40 37 39 37 35 35 36 35 33 28 25 25 22 18 15 17 17 15 13 13 12 12 9 6 5 6 8 7 6 8 5 6 8 8 9 9 8
44 44 44 42 42 41 41 42 42 43 41 38 39 36 36 37 37 35 29 27 26 22 20 18 20 19 17 15 15 14 13 10 10 10 11 11 10 10 11 10 11 12 12 12 13
48 47 45 45 45 42 42 39 39 38 42 44 40 38 37 38 39 40 34 29 29 27 24 21 20 21 21 19 18 16 17 13 14 15 14 13 13 12 12 15 14 14 15 16 16
51 50 47 46 45 42 42 41 39 37 37 42 43 38 39 38 40 39 37 34 31 31 28 25 23 22 23 22 20 21 20 17 18 19 16 16 17 14 16 15 14 14 15 17 20
52 52 51 49 45 44 42 43 41 39 38 38 40 42 38 38 39 42 41 38 34 32 31 28 25 25 25 25 25 25 23 21 21 21 19 17 17 15 18 17 17 16 16 16 19
51 52 52 50 47 44 43 43 42 42 41 38 38 39 41 37 39 41 43 41 40 37 33 30 28 29 28 28 28 27 25 24 23 24 21 20 18 18 18 19 20 20 20 18 18
51 51 53 52 50 46 44 43 42 43 42 40 39 36 38 42 41 40 43 43 43 42 37 33 33 34 33 32 30 30 28 27 27 26 24 23 23 21 19 20 22 24 24 22 22
52 51 52 54 53 50 47 46 44 44 42 42 41 38 35 44 42 39 40 43 45 44 43 41 41 36 37 36 34 33 32 30 28 27 27 26 27 25 22 21 23 25 26 25 24
50 51 52 53 55 53 50 48 48 47 45 44 43 41 38 40 35 40 42 40 46 47 44 42 46 43 42 43 39 37 36 33 30 30 30 29 29 30 27 24 25 26 28 26 24
48 49 50 53 55 55 53 50 50 48 47 46 46 44 40 39 38 40 40 42 41 45 45 47 47 44 43 45 41 41 39 36 34 35 35 33 33 34 31 27 26 30 30 28 27
50 46 49 50 50 52 53 52 52 50 45 38 46 43 40 40 39 39 39 41 42 43 41 44 47 47 42 47 47 52 50 40 37 37 37 35 33 35 33 26 29 30 32 30 29
51 47 48 50 49 50 51 52 48 46 42 43 45 40 40 39 38 40 39 42 40 39 39 41 44 38 45 47 50 50 51 42 41 42 43 38 34 33 38 32 32 29 32 34 29
51 49 48 51 50 48 45 47 48 44 45 45 43 39 38 40 37 37 40 39 38 38 39 39 37 38 43 43 48 46 46 40 43 47 45 42 39 38 38 35 35 30 31 34 29
55 51 47 49 52 45 42 49 48 47 49 46 42 37 42 39 41 37 39 38 38 36 38 43 38 39 42 41 45 44 45 49 48 48 46 46 43 31 39 42 35 32 30 31 31
60 49 50 49 48 42 41 50 50 51 49 44 43 43 41 40 35 38 38 40 37 34 41 40 36 37 36 33 40 42 46 48 46 46 46 40 43 30 34 38 34 32 30 29 30
62 50 60 59 50 47 53 56 57 54 52 45 42 40 39 38 35 37 38 39 39 38 41 43 42 41 38 35 36 37 37 40 44 45 47 37 42 35 30 36 34 32 29 29 28
66 59 55 52 49 58 61 58 58 56 48 47 41 33 34 34 32 33 35 36 37 37 39 42 42 40 40 38 36 36 36 40 44 45 46 42 43 33 31 30 31 28 29 28 28
72 69 54 61 55 58 55 63 58 42 44 42 41 38 36 33 30 30 31 28 29 34 36 39 42 39 40 38 36 41 43 44 46 46 45 41 36 30 29 28 26 26 29 27 25
75 65 64 63 57 63 63 59 47 42 45 41 41 38 37 35 33 33 30 28 28 27 33 37 39 38 40 39 42 42 44 40 42 40 39 35 28 25 25 29 21 24 25 24 24
79 81 68 64 69 67 63 52 49 48 46 43 39 37 32 30 30 32 32 28 23 21 28 34 37 37 39 40 42 41 35 38 41 40 39 38 30 29 33 24 25 25 23 22 23
81 78 73 79 83 75 64 55 51 47 44 44 41 37 35 27 30 28 29 29 27 23 25 29 33 36 40 42 35 36 36 37 38 38 38 35 31 29 19 22 25 22 21 21 23
81 76 76 71 71 69 61 56 51 45 47 43 43 40 37 31 30 27 26 26 26 24 24 27 32 34 34 36 39 39 43 40 42 39 37 35 31 22 22 26 26 23 23 22 22
65 61 82 80 73 67 60 56 53 48 47 46 45 40 36 33 31 29 23 23 23 23 22 23 29 33 36 38 39 36 39 40 34 37 40 35 26 20 25 28 30 30 26 25 25
76 66 83 84 71 67 58 55 53 50 47 48 46 40 38 38 33 32 27 22 18 19 22 23 28 31 28 35 32 36 38 37 38 39 31 30 20 22 29 30 33 31 29 30 27
81 63 79 77 74 71 61 56 51 50 48 49 47 42 39 41 31 33 29 22 20 21 23 25 25 22 22 29 29 28 29 35 41 31 34 22 32 29 27 31 34 29 26 25 28
68 77 73 84 64 70 64 56 50 47 47 50 48 41 38 38 37 31 27 25 25 24 24 29 25 23 24 24 27 27 30 28 27 29 33 30 32 21 30 30 28 26 26 28 30
52 73 65 79 63 66 54 50 46 48 47 45 43 40 39 39 37 34 33 31 32 28 27 28 32 27 24 26 29 37 32 33 35 35 30 32 23 27 27 27 28 28 30 31 32
Wind_Direction
240 240 236 238 240 244 243 242 242 237 238 236 234 234 233 237 240 239 236 236 229 229 233 235 237 241 240 247 254 257 256 255 249 267 281 288 301 307 290 285 285 280 290 295 285
244 243 241 237 239 240 241 242 242 242 236 237 232 231 232 233 238 239 237 237 233 228 229 235 238 239 240 241 249 256 263 256 259 259 268 280 282 285 295 286 281 280 281 277 279
244 244 243 240 237 238 238 240 241 241 239 236 238 231 232 230 234 239 239 237 236 230 230 232 240 245 244 245 246 251 258 259 262 260 265 270 273 278 281 290 295 292 284 282 285
242 244 243 243 242 239 238 238 238 240 240 238 236 236 233 231 235 236 239 239 236 233 230 231 239 245 249 246 246 249 254 259 261 261 262 267 271 276 280 285 290 289 288 294 294
237 239 242 242 242 240 239 238 237 237 238 239 238 236 236 234 233 234 235 236 237 237 234 233 235 244 248 249 245 245 250 255 259 266 262 258 264 266 275 286 287 284 283 288 296
235 236 238 240 240 241 239 238 239 236 236 237 239 238 237 237 233 234 236 236 237 236 237 235 236 241 245 250 251 249 251 253 257 262 261 259 260 258 274 281 286 287 290 287 288
235 236 236 237 239 239 238 241 241 239 237 237 238 238 236 239 235 235 235 235 238 238 239 239 240 242 246 246 251 253 253 252 255 259 261 262 264 261 266 274 281 287 291 290 291
233 233 236 236 237 239 237 240 241 240 238 238 238 237 236 238 238 238 237 236 240 241 238 238 239 241 245 251 249 252 252 253 256 259 259 262 267 265 265 268 275 284 289 293 292
232 230 232 234 235 236 237 238 240 240 238 238 238 238 236 238 241 238 236 237 240 241 240 241 241 241 242 248 251 251 251 253 258 259 259 261 261 262 263 264 269 280 282 287 287
230 229 231 232 234 236 237 237 239 240 239 238 238 239 239 240 238 239 237 236 238 242 244 242 243 241 240 244 247 248 254 254 255 261 259 257 260 262 262 263 267 277 279 281 283
227 229 230 231 233 234 236 237 238 240 242 243 237 239 239 242 243 242 239 239 239 242 244 247 245 246 241 241 242 246 247 256 257 258 259 257 257 265 264 258 266 272 274 277 281
224 224 226 230 233 234 236 236 238 241 239 239 239 237 240 240 241 242 243 243 243 243 246 248 249 248 247 247 251 248 243 252 254 259 259 255 254 257 265 259 264 265 269 274 278
220 217 224 227 230 234 236 234 236 239 241 239 238 234 238 237 239 242 244 244 243 243 243 246 247 245 247 247 246 241 243 248 254 256 258 257 255 258 260 261 265 263 262 272 273
218 214 221 226 225 231 234 234 233 236 239 236 241 235 239 239 239 243 246 247 243 242 244 244 245 246 249 251 254 252 250 252 250 251 253 263 266 245 256 262 262 259 259 265 269
216 211 219 223 228 227 232 231 231 235 238 238 236 238 238 240 239 241 242 243 244 245 245 249 246 251 246 248 249 248 246 251 251 255 260 262 265 259 253 259 260 261 261 264 263
213 206 218 225 218 219 224 224 225 226 234 237 237 239 237 239 238 240 241 239 240 238 240 241 241 244 249 251 254 251 250 251 254 258 260 258 265 266 255 255 255 256 265 267 261
207 203 219 215 216 220 219 222 222 225 231 236 238 237 235 233 231 231 237 243 246 248 249 246 247 246 248 249 250 252 250 254 259 264 265 262 264 267 257 249 251 257 262 261 257
205 204 209 220 216 222 230 219 223 228 233 236 233 232 232 229 227 225 232 234 241 242 239 240 243 248 252 251 249 245 246 250 256 262 264 265 258 252 248 250 249 257 262 258 257
201 203 217 216 213 223 231 220 225 227 231 230 230 231 229 231 227 226 235 245 244 241 240 242 242 243 247 245 247 251 253 256 258 258 258 254 247 238 244 252 255 253 255 257 256
197 203 213 208 219 220 223 224 232 227 229 225 227 229 226 227 228 231 235 239 239 236 235 238 240 240 239 243 244 249 245 242 249 253 251 248 242 243 245 242 247 251 250 253 257
198 205 210 211 216 216 217 217 223 225 230 221 224 227 224 229 230 234 235 235 235 235 235 239 240 242 242 244 241 244 243 241 245 249 255 255 249 246 232 238 245 249 253 255 256
195 201 207 213 213 210 212 213 224 228 225 218 217 223 223 232 235 235 238 239 240 238 240 243 242 240 234 233 234 237 232 233 237 240 249 251 243 244 239 241 248 250 250 251 258
194 197 210 210 209 205 206 215 219 218 221 212 216 223 222 226 230 227 230 238 241 245 246 245 249 242 234 235 234 234 234 237 237 238 241 246 244 248 243 247 245 250 254 260 263
198 201 211 210 205 204 209 209 214 218 218 213 215 217 220 224 228 222 233 241 242 248 243 239 245 240 247 246 242 240 235 231 234 241 247 246 236 233 238 245 253 253 255 260 269
196 200 203 204 202 205 212 211 216 221 217 214 213 217 220 226 228 222 233 241 245 250 256 254 251 248 234 219 227 231 233 235 239 242 238 229 235 234 242 246 251 261 263 269 272
196 196 206 213 209 205 207 203 212 218 214 215 217 213 218 229 229 234 238 241 244 246 247 253 246 242 231 238 230 231 224 221 228 228 234 232 242 231 240 249 259 270 273 273 275
191 202 204 202 205 201 201 201 204 210 213 218 221 219 218 222 223 227 229 231 229 231 237 246 241 239 234 235 239 238 227 225 230 236 248 244 231 241 244 253 262 270 273 276 278